Lewiston, ID

10:44 AM PST on February 10, 2016 (GMT -0800)
Lewiston-Nez Perce County

Weather History for KLWS - September, 2013

Change the Weather History Date:

Friday, September 27, 2013

  Actual Average Record
Temperature  
Mean Temperature 53 °F 60 °F  
Max Temperature 61 °F 73 °F 93 °F (1963)
Min Temperature 45 °F 47 °F 35 °F (1945)
Degree Days  
Heating Degree Days 12 6  
Month to date heating degree days 62 79  
Since 1 July heating degree days 62 94  
Cooling Degree Days 0 1  
Month to date cooling degree days 184 85  
Year to date cooling degree days 1178 802  
Growing Degree Days 3 (Base 50)    
Moisture  
Dew Point 43 °F    
Average Humidity 66    
Maximum Humidity 89    
Minimum Humidity 42    
Precipitation  
Precipitation 0.03 in 0.03 in 0.83 in (1905)
Month to date precipitation 1.45 0.60  
Year to date precipitation 7.84 9.13  
Snow  
Snow 0.00 in 0.00 in 0.00 in (1998)
Month to date snowfall 0.0 0.0  
Since 1 July snowfall 0.0 0.0  
Since 1 September snowfall 0.0 0.0  
Snow Depth 0.00 in    
Sea Level Pressure  
Sea Level Pressure 30.02 in    
Wind  
Wind Speed 5 mph (SSE)    
Max Wind Speed 17 mph    
Max Gust Speed 21 mph    
Visibility 10 miles    
Events Rain    
T = Trace of Precipitation, MM = Missing Value Source: NWS Daily Summary

Daily Weather History Graph

Daily Weather History Graph

Search for Another Location

Airport or City:

Trip Planner

Search our weather history database for the weather conditions in past years. The results will help you decide how hot, cold, wet, or windy it might be!

Date:

Astronomy

Sep. 27, 2013 Rise Set
Actual Time 6:41 AM PDT 6:35 PM PDT
Civil Twilight 6:11 AM PDT 7:05 PM PDT
Nautical Twilight 5:36 AM PDT 7:40 PM PDT
Astronomical Twilight 5:00 AM PDT 8:15 PM PDT
Moon No Moon Rise 2:34 PM PDT (9/27)
Length of Visible Light 12h 53m
Length of Day
11h 53m
Last Quarter, 44% of the Moon is Illuminated
Sep 27
Last Quarter
Oct 4
New
Oct 11
First Quarter
Oct 18
Full
Oct 26
Last Quarter

Hourly Weather History & Observations

Time (PDT) Temp. Windchill Dew Point Humidity Pressure Visibility Wind Dir Wind Speed Gust Speed Precip Events Conditions
12:56 AM 48.0 °F - 39.9 °F 74% 30.04 in 10.0 mi South 3.5 mph - N/A   Clear
1:56 AM 48.0 °F - 39.9 °F 74% 30.04 in 10.0 mi Calm Calm - N/A   Clear
2:56 AM 45.0 °F 43.5 °F 41.0 °F 86% 30.06 in 10.0 mi West 3.5 mph - N/A   Overcast
3:56 AM 46.0 °F 43.9 °F 42.1 °F 86% 30.06 in 10.0 mi SE 4.6 mph - N/A   Overcast
4:56 AM 46.9 °F - 42.1 °F 83% 30.06 in 10.0 mi ESE 3.5 mph - N/A   Overcast
5:56 AM 46.9 °F - 42.1 °F 83% 30.06 in 10.0 mi ESE 5.8 mph - N/A   Overcast
6:56 AM 46.9 °F - 42.1 °F 83% 30.07 in 10.0 mi Calm Calm - N/A   Overcast
7:56 AM 48.0 °F - 42.1 °F 80% 30.07 in 10.0 mi ESE 3.5 mph - N/A   Overcast
8:56 AM 48.9 °F - 42.1 °F 77% 30.07 in 10.0 mi Calm Calm - N/A   Overcast
9:56 AM 51.1 °F - 43.0 °F 74% 30.07 in 10.0 mi NE 3.5 mph - N/A   Scattered Clouds
10:56 AM 54.0 °F - 44.1 °F 69% 30.05 in 10.0 mi North 5.8 mph - N/A   Mostly Cloudy
11:56 AM 55.9 °F - 44.1 °F 64% 30.04 in 10.0 mi Variable 3.5 mph - N/A   Partly Cloudy
12:56 PM 59.0 °F - 43.0 °F 55% 30.01 in 10.0 mi Calm Calm - N/A   Scattered Clouds
1:56 PM 61.0 °F - 37.9 °F 42% 29.99 in 10.0 mi NNW 4.6 mph - N/A   Overcast
2:56 PM 57.0 °F - 42.1 °F 57% 30.01 in 10.0 mi NW 11.5 mph 20.7 mph 0.00 in Rain Light Rain
3:56 PM 55.0 °F - 43.0 °F 64% 30.00 in 10.0 mi NW 8.1 mph - 0.00 in   Overcast
4:56 PM 55.9 °F - 42.1 °F 60% 30.00 in 10.0 mi Calm Calm - N/A   Overcast
5:56 PM 55.0 °F - 43.0 °F 64% 30.00 in 10.0 mi East 5.8 mph - N/A   Overcast
6:56 PM 55.9 °F - 42.1 °F 60% 30.00 in 10.0 mi SW 4.6 mph - 0.00 in   Overcast
7:56 PM 53.1 °F - 44.1 °F 71% 30.00 in 10.0 mi South 8.1 mph - 0.00 in Rain Light Rain
8:56 PM 52.0 °F - 45.0 °F 77% 30.00 in 10.0 mi South 6.9 mph - 0.02 in Rain Light Rain
9:56 PM 53.1 °F - 45.0 °F 74% 29.99 in 10.0 mi South 6.9 mph - 0.01 in Rain Light Rain
10:56 PM 54.0 °F - 44.1 °F 69% 29.96 in 10.0 mi South 13.8 mph - 0.00 in   Overcast
11:56 PM 54.0 °F - 44.1 °F 69% 29.94 in 10.0 mi South 13.8 mph - N/A   Overcast